Location: Luxembourg
(49.6117°N, 6.1300°E)
Time: 03:33:39
(UTC+01:00)

ISS - Pass Details

Date: 08 December 2021
Orbit: 413 x 422 km, 51.6° (Epoch: 22 January)

Event Time Altitude Azimuth Distance (km) Brightness Sun altitude
Rises 17:53:32 0° 286° (WNW) 2,385 1.0 -11.9°
Reaches altitude 10° 17:55:57 10° 270° (W) 1,514 0.3 -12.3°
Maximum altitude 17:58:37 22° 218° (SW) 986 -1.1 -12.7°
Drops below altitude 10° 18:01:17 10° 166° (SSE) 1,502 -0.9 -13.1°
Enters shadow 18:05:56 -7° 144° (SE) 3,247 0.6 -13.8°
